Flag for Canada Weather past 2 weeks in Sarnia, Ontario, Canada

Now
39 °F

Overcast.


Feels Like: 29 °F
Forecast: 37 / 47 °F
Wind: 21 mph from North

Location: Sarnia Airport

Current Time: Apr 27, 2015 at 10:32:34 AM

Latest Report: Apr 27, 2015 at 10:00 AM


Visibility: 9 mi

Pressure: 29.97 "Hg

Humidity: 87%

Dew point: 36 °F

Location of SarniaLocation

Historic Weather in Sarnia — Graph

°F

Sarnia temperature yesterday

Maximum temperature yesterday: 46 °F (at 4:00 PM)
Minimum temperature yesterday: 34 °F (at 4:00 AM)
Average temperature yesterday: 40 °F

Past Weeks' High & Low Weather Summary

 TemperatureHumidityPressure
High70 °F (Apr 13, 1:47 PM)94% (Apr 16, 10:00 PM)30.43 "Hg (Apr 16, 10:00 PM)
Low30 °F (Apr 23, 5:00 AM)27% (Apr 16, 12:00 PM)29.25 "Hg (Apr 20, 7:00 AM)
Average46 °F65%29.94 "Hg
* Reported Apr 12 9:00 AM — Apr 27 9:00 AM, Sarnia, Weather by CustomWeather, © 2015

Note: Actual official high and low records may vary slightly from our data, if they occured in-between our weather recording intervals... More about our weather records

Advertising

Sarnia weather history for previous 24 hours

 ConditionsComfort  
Time TempWeatherWind HumidityBarometerVisibility
9:00 AM
Mon, Apr 27
37 °FLow clouds.16 mph93%29.96 "Hg9 mi
8:52 AM37 °FMore clouds than sun.16 mph93%29.96 "Hg9 mi
8:00 AM37 °FMostly cloudy.21 mph93%29.95 "Hg8 mi
7:00 AM37 °FLight rain. Mostly cloudy.21 mph93%29.94 "Hg9 mi
6:00 AM37 °FLight rain. Mostly cloudy.18 mph87%29.93 "Hg9 mi
5:49 AM37 °FLight rain. Overcast.18 mph93%29.93 "Hg9 mi
5:00 AM37 °FLight rain. Mostly cloudy.16 mph93%29.92 "Hg9 mi
4:00 AM39 °FLight rain. Overcast.15 mph87%29.91 "Hg9 mi
3:00 AM41 °FOvercast.18 mph81%29.91 "Hg9 mi
2:00 AM41 °FMostly cloudy.13 mph81%29.91 "Hg9 mi
1:00 AM41 °FOvercast.10 mph81%29.92 "Hg9 mi
12:00 AM41 °FOvercast.14 mph76%29.92 "Hg9 mi
11:00 PM
Sun, Apr 26
39 °FOvercast.8 mph81%29.93 "Hg9 mi
10:00 PM37 °FPassing clouds.9 mph87%29.93 "Hg9 mi
9:00 PM37 °FSunny.9 mph87%29.93 "Hg9 mi
8:00 PM39 °FSunny.9 mph75%29.93 "Hg9 mi
7:00 PM41 °FSunny.13 mph70%29.93 "Hg9 mi
6:00 PM45 °FSunny.16 mph61%29.93 "Hg9 mi
5:00 PM46 °FSunny.18 mph57%29.93 "Hg9 mi
4:00 PM46 °FSunny.18 mph57%29.94 "Hg9 mi
3:00 PM45 °FSunny.17 mph61%29.95 "Hg9 mi
2:00 PM45 °FSunny.16 mph66%29.94 "Hg9 mi
1:00 PM45 °FSunny.15 mph66%29.94 "Hg9 mi
12:00 PM45 °FSunny.13 mph66%29.93 "Hg9 mi
11:00 AM43 °FSunny.13 mph66%29.93 "Hg9 mi
10:00 AM43 °FSunny.8 mph66%29.93 "Hg9 mi
Weather by CustomWeather, © 2015

See weather overviewHow to use our weather pages